• In Uzbekistan
  • List of Countries
  • For 7 days
  • Water Temperature
  • Satellite Maps
  • Weather Map
  • Weather Widgets
  • user-avatar
    Login

    Hourly Weather Sevan

    Today, 27 May, Saturday

    Time Temperature Precipitation Wind Pressure Humidity
    00:00 +9°C° 0.3 mm 1 mps 639 mmHg 76%
    01:00 +9°C° 0.2 mm 1 mps 639 mmHg 78%
    02:00 +8°C° 0.2 mm 1 mps 639 mmHg 79%
    03:00 +8°C° 0 mm 1 mps 638 mmHg 81%
    04:00 +9°C° 0.1 mm 1 mps 638 mmHg 76%
    05:00 +11°C° 0.1 mm 1 mps 639 mmHg 72%
    06:00 +12°C° 0.1 mm 1 mps 640 mmHg 68%
    07:00 +14°C° 0.1 mm 1 mps 640 mmHg 60%
    08:00 +18°C° 0.1 mm 1 mps 640 mmHg 51%
    09:00 +19°C° 0 mm 2 mps 641 mmHg 40%
    10:00 +20°C° 0.1 mm 2 mps 641 mmHg 38%
    11:00 +21°C° 0.1 mm 2 mps 641 mmHg 36%
    12:00 +23°C° 0.1 mm 2 mps 641 mmHg 33%
    13:00 +23°C° 0.3 mm 2 mps 640 mmHg 36%
    14:00 +23°C° 0.3 mm 2 mps 640 mmHg 39%
    15:00 +21°C° 0 mm 2 mps 640 mmHg 43%
    16:00 +20°C° 0.6 mm 2 mps 640 mmHg 49%
    17:00 +20°C° 0.6 mm 1 mps 639 mmHg 54%
    18:00 +19°C° 0.6 mm 1 mps 639 mmHg 59%
    19:00 +16°C° 0.3 mm 1 mps 638 mmHg 65%
    20:00 +13°C° 0.3 mm 1 mps 638 mmHg 72%
    21:00 +10°C° 0.3 mm 1 mps 637 mmHg 78%
    22:00 +10°C° 0 mm 1 mps 638 mmHg 79%
    23:00 +9°C° 0 mm 1 mps 638 mmHg 79%

    Tomorrow, 28 May, Sunday

    Time Temperature Precipitation Wind Pressure Humidity
    00:00 +9°C° 0 mm 1 mps 638 mmHg 80%
    01:00 +9°C° 0 mm 1 mps 638 mmHg 80%
    02:00 +9°C° 0 mm 1 mps 638 mmHg 79%
    03:00 +8°C° 0 mm 1 mps 638 mmHg 79%
    04:00 +10°C° 0 mm 1 mps 639 mmHg 76%
    05:00 +11°C° 0 mm 1 mps 639 mmHg 73%
    06:00 +12°C° 0 mm 1 mps 640 mmHg 70%
    07:00 +15°C° 0 mm 1 mps 640 mmHg 59%
    08:00 +17°C° 0 mm 2 mps 641 mmHg 48%
    09:00 +19°C° 0 mm 2 mps 642 mmHg 37%
    10:00 +20°C° 0 mm 2 mps 642 mmHg 34%
    11:00 +22°C° 0 mm 3 mps 642 mmHg 31%
    12:00 +24°C° 0 mm 3 mps 642 mmHg 28%
    13:00 +24°C° 0.1 mm 3 mps 642 mmHg 27%
    14:00 +23°C° 0.1 mm 4 mps 642 mmHg 27%
    15:00 +23°C° 0.1 mm 4 mps 642 mmHg 27%
    16:00 +22°C° 0.2 mm 4 mps 642 mmHg 33%
    17:00 +21°C° 0.2 mm 3 mps 641 mmHg 40%
    18:00 +19°C° 0.2 mm 3 mps 641 mmHg 46%
    19:00 +16°C° 0.1 mm 2 mps 641 mmHg 55%
    20:00 +13°C° 0.1 mm 2 mps 640 mmHg 64%
    21:00 +10°C° 0.1 mm 1 mps 640 mmHg 73%
    22:00 +10°C° 0 mm 1 mps 640 mmHg 74%
    23:00 +9°C° 0 mm 1 mps 641 mmHg 75%

    Day after tomorrow, 29 May, Monday

    Time Temperature Precipitation Wind Pressure Humidity
    00:00 +9°C° 0 mm 1 mps 641 mmHg 75%
    01:00 +8°C° 0 mm 1 mps 641 mmHg 76%
    02:00 +8°C° 0 mm 1 mps 641 mmHg 76%
    03:00 +8°C° 0 mm 1 mps 641 mmHg 77%
    04:00 +9°C° 0 mm 1 mps 641 mmHg 72%
    05:00 +11°C° 0 mm 1 mps 642 mmHg 68%
    06:00 +13°C° 0 mm 1 mps 643 mmHg 64%
    07:00 +15°C° 0 mm 1 mps 643 mmHg 54%
    08:00 +18°C° 0 mm 1 mps 644 mmHg 45%
    09:00 +20°C° 0 mm 2 mps 645 mmHg 36%
    10:00 +21°C° 0 mm 2 mps 645 mmHg 34%
    11:00 +23°C° 0 mm 2 mps 645 mmHg 32%
    12:00 +24°C° 0 mm 2 mps 645 mmHg 30%
    13:00 +24°C° 0.1 mm 2 mps 645 mmHg 31%
    14:00 +24°C° 0.1 mm 2 mps 645 mmHg 32%
    15:00 +24°C° 0.1 mm 2 mps 645 mmHg 34%
    16:00 +23°C° 0.4 mm 2 mps 644 mmHg 40%
    17:00 +22°C° 0.4 mm 1 mps 644 mmHg 46%
    18:00 +21°C° 0.4 mm 1 mps 644 mmHg 53%
    19:00 +19°C° 0.4 mm 1 mps 643 mmHg 59%
    20:00 +15°C° 0.4 mm 1 mps 643 mmHg 66%
    21:00 +13°C° 0.4 mm 2 mps 643 mmHg 72%
    22:00 +12°C° 0.2 mm 2 mps 643 mmHg 74%
    23:00 +12°C° 0.2 mm 2 mps 643 mmHg 76%

    30 May, Tuesday

    Time Temperature Precipitation Wind Pressure Humidity
    00:00 +12°C° 0.2 mm 1 mps 643 mmHg 78%
    01:00 +11°C° 0 mm 1 mps 643 mmHg 78%
    02:00 +11°C° 0 mm 1 mps 643 mmHg 79%
    03:00 +11°C° 0 mm 1 mps 642 mmHg 80%
    04:00 +11°C° 0 mm 1 mps 643 mmHg 77%
    05:00 +12°C° 0 mm 1 mps 643 mmHg 75%
    06:00 +13°C° 0 mm 1 mps 643 mmHg 72%
    07:00 +16°C° 0 mm 1 mps 644 mmHg 60%
    08:00 +19°C° 0 mm 2 mps 645 mmHg 48%
    09:00 +23°C° 0 mm 2 mps 645 mmHg 35%
    10:00 +24°C° 0 mm 2 mps 645 mmHg 31%
    11:00 +25°C° 0 mm 2 mps 645 mmHg 27%
    12:00 +26°C° 0 mm 3 mps 645 mmHg 24%
    13:00 +26°C° 0 mm 3 mps 645 mmHg 24%
    14:00 +26°C° 0 mm 3 mps 645 mmHg 24%
    15:00 +27°C° 0 mm 3 mps 645 mmHg 24%
    16:00 +26°C° 0 mm 3 mps 644 mmHg 29%
    17:00 +24°C° 0 mm 2 mps 644 mmHg 34%
    18:00 +23°C° 0 mm 2 mps 644 mmHg 38%
    19:00 +20°C° 0 mm 1 mps 643 mmHg 49%
    20:00 +15°C° 0 mm 1 mps 642 mmHg 59%
    21:00 +12°C° 0 mm 1 mps 642 mmHg 69%
    22:00 +11°C° 0 mm 1 mps 641 mmHg 69%
    23:00 +11°C° 0 mm 1 mps 641 mmHg 70%

    31 May, Wednesday

    Time Temperature Precipitation Wind Pressure Humidity
    00:00 +10°C° 0 mm 1 mps 641 mmHg 70%
    01:00 +10°C° 0 mm 1 mps 641 mmHg 69%
    02:00 +10°C° 0 mm 1 mps 641 mmHg 68%
    03:00 +9°C° 0 mm 1 mps 641 mmHg 67%
    04:00 +11°C° 0 mm 1 mps 641 mmHg 63%
    05:00 +13°C° 0 mm 1 mps 642 mmHg 59%
    06:00 +15°C° 0 mm 1 mps 643 mmHg 55%
    07:00 +18°C° 0 mm 1 mps 643 mmHg 47%
    08:00 +21°C° 0 mm 1 mps 644 mmHg 38%
    09:00 +24°C° 0 mm 2 mps 644 mmHg 29%
    10:00 +25°C° 0 mm 2 mps 644 mmHg 28%
    11:00 +26°C° 0 mm 2 mps 644 mmHg 26%
    12:00 +27°C° 0 mm 2 mps 644 mmHg 25%
    13:00 +27°C° 0.1 mm 2 mps 643 mmHg 26%
    14:00 +27°C° 0.1 mm 2 mps 643 mmHg 27%
    15:00 +27°C° 0.1 mm 2 mps 642 mmHg 28%
    16:00 +26°C° 0.4 mm 2 mps 642 mmHg 35%
    17:00 +24°C° 0.4 mm 2 mps 641 mmHg 43%
    18:00 +23°C° 0.4 mm 1 mps 641 mmHg 50%
    19:00 +20°C° 1 mm 1 mps 640 mmHg 58%
    20:00 +18°C° 1 mm 1 mps 640 mmHg 66%
    21:00 +14°C° 1 mm 1 mps 639 mmHg 75%
    22:00 +13°C° 1 mm 1 mps 639 mmHg 77%
    23:00 +13°C° 1 mm 1 mps 639 mmHg 79%

    1 June, Thursday

    Time Temperature Precipitation Wind Pressure Humidity
    00:00 +12°C° 1 mm 1 mps 638 mmHg 81%
    01:00 +12°C° 0.7 mm 1 mps 638 mmHg 82%
    02:00 +11°C° 0.7 mm 1 mps 638 mmHg 82%
    03:00 +11°C° 0.7 mm 1 mps 637 mmHg 83%
    04:00 +12°C° 0.2 mm 1 mps 638 mmHg 81%
    05:00 +13°C° 0.2 mm 1 mps 638 mmHg 78%
    06:00 +13°C° 0.2 mm 1 mps 638 mmHg 76%
    07:00 +16°C° 0.1 mm 1 mps 639 mmHg 64%
    08:00 +19°C° 0.1 mm 1 mps 640 mmHg 53%
    09:00 +21°C° 0.1 mm 1 mps 640 mmHg 41%
    10:00 +22°C° 0.1 mm 1 mps 640 mmHg 36%
    11:00 +24°C° 0.1 mm 1 mps 640 mmHg 31%
    12:00 +25°C° 0.1 mm 2 mps 640 mmHg 26%
    13:00 +25°C° 0.1 mm 2 mps 640 mmHg 27%
    14:00 +25°C° 0.1 mm 2 mps 639 mmHg 28%
    15:00 +25°C° 0.1 mm 2 mps 639 mmHg 29%
    16:00 +23°C° 0.4 mm 2 mps 639 mmHg 36%
    17:00 +22°C° 0.4 mm 1 mps 638 mmHg 43%
    18:00 +21°C° 0.4 mm 1 mps 638 mmHg 50%
    19:00 +18°C° 0.4 mm 1 mps 638 mmHg 59%
    20:00 +15°C° 0.4 mm 1 mps 638 mmHg 67%
    21:00 +12°C° 0.4 mm 1 mps 637 mmHg 75%
    22:00 +12°C° 0.1 mm 1 mps 637 mmHg 77%
    23:00 +11°C° 0.1 mm 1 mps 637 mmHg 79%
    Show more